EXS12X LEPA-LEIB

Flight info

Callsign EXS12X
Flight time 0h 27m
Altitude 11000
Route NELUX
Aircraft A321/M-SDE3FGHIRWY/LB1

Departure

Time 2026-05-04 13:03
Airport Palma de Mallorca Airport (LEPA)

Arrival

Time 2026-05-04 13:31
Airport Ibiza Airport (LEIB)
Time Latitude Longitude Altitude Speed Heading
2026-05-04 12:52 39.54993 2.72675 31 ft 0 kts 147°
2026-05-04 12:58 39.55000 2.72669 30 ft 2 kts 145°
2026-05-04 12:58 39.55013 2.72657 28 ft 2 kts 146°
2026-05-04 12:58 39.55027 2.72645 26 ft 2 kts 146°
2026-05-04 12:58 39.55040 2.72633 29 ft 2 kts 139°
2026-05-04 12:59 39.55051 2.72617 28 ft 2 kts 76°
2026-05-04 12:59 39.55049 2.72609 27 ft 0 kts 64°
2026-05-04 12:59 39.55052 2.72617 28 ft 2 kts 64°
2026-05-04 12:59 39.55061 2.72640 29 ft 4 kts 64°
2026-05-04 13:00 39.55098 2.72719 29 ft 16 kts 59°
2026-05-04 13:00 39.55172 2.72882 31 ft 26 kts 60°
2026-05-04 13:00 39.55280 2.73108 32 ft 31 kts 59°
2026-05-04 13:00 39.55394 2.73341 33 ft 31 kts 57°
2026-05-04 13:01 39.55505 2.73559 34 ft 17 kts 30°
2026-05-04 13:01 39.55573 2.73536 34 ft 14 kts 327°
2026-05-04 13:01 39.55677 2.73538 35 ft 11 kts 53°
2026-05-04 13:01 39.55721 2.73649 34 ft 21 kts 59°
2026-05-04 13:02 39.55830 2.73871 37 ft 37 kts 58°
2026-05-04 13:02 39.55982 2.74194 37 ft 37 kts 59°
2026-05-04 13:02 39.56098 2.74307 39 ft 17 kts 36°
2026-05-04 13:02 39.56231 2.74343 39 ft 19 kts 318°
2026-05-04 13:03 39.56215 2.74223 39 ft 24 kts 237°
2026-05-04 13:03 39.55993 2.73763 35 ft 103 kts 238°
2026-05-04 13:03 39.55500 2.72719 126 ft 159 kts 237°
2026-05-04 13:03 39.54887 2.71441 732 ft 174 kts 238°
2026-05-04 13:04 39.54223 2.70042 1427 ft 193 kts 237°
2026-05-04 13:04 39.53475 2.68462 2074 ft 224 kts 237°
2026-05-04 13:04 39.52619 2.66627 2855 ft 252 kts 238°
2026-05-04 13:04 39.51687 2.64605 3660 ft 270 kts 239°
2026-05-04 13:05 39.50698 2.62450 4579 ft 285 kts 238°
2026-05-04 13:05 39.49649 2.60301 5928 ft 273 kts 234°
2026-05-04 13:05 39.48578 2.58369 7466 ft 257 kts 233°
2026-05-04 13:05 39.47579 2.56600 7903 ft 232 kts 233°
2026-05-04 13:06 39.46649 2.54923 8325 ft 228 kts 234°
2026-05-04 13:06 39.45739 2.53239 8757 ft 229 kts 234°
2026-05-04 13:06 39.44867 2.51511 9189 ft 230 kts 236°
2026-05-04 13:06 39.43967 2.49792 9635 ft 231 kts 234°
2026-05-04 13:07 39.43042 2.48084 10068 ft 232 kts 233°
2026-05-04 13:07 39.42107 2.46375 10462 ft 234 kts 234°
2026-05-04 13:07 39.41142 2.44617 10864 ft 253 kts 234°
2026-05-04 13:07 39.40049 2.42625 10974 ft 288 kts 234°
2026-05-04 13:08 39.38918 2.40549 10976 ft 276 kts 234°
2026-05-04 13:08 39.37824 2.38538 10977 ft 272 kts 234°
2026-05-04 13:08 39.36735 2.36541 10980 ft 271 kts 234°
2026-05-04 13:08 39.35648 2.34549 10980 ft 271 kts 234°
2026-05-04 13:09 39.34562 2.32555 10979 ft 271 kts 234°
2026-05-04 13:09 39.33479 2.30564 10978 ft 271 kts 234°
2026-05-04 13:09 39.32341 2.28631 10977 ft 271 kts 225°
2026-05-04 13:09 39.30730 2.27381 10974 ft 274 kts 199°
2026-05-04 13:10 39.28886 2.26896 10977 ft 268 kts 193°
2026-05-04 13:10 39.27047 2.26554 10977 ft 268 kts 188°
2026-05-04 13:10 39.25198 2.26539 10978 ft 270 kts 182°
2026-05-04 13:10 39.23324 2.26626 10970 ft 269 kts 182°
2026-05-04 13:11 39.21471 2.26661 10597 ft 263 kts 190°
2026-05-04 13:11 39.19721 2.26089 10144 ft 258 kts 201°
2026-05-04 13:11 39.18021 2.25345 9681 ft 257 kts 202°
2026-05-04 13:11 39.16340 2.24587 9219 ft 255 kts 202°
2026-05-04 13:12 39.14693 2.23774 8764 ft 251 kts 208°
2026-05-04 13:12 39.13182 2.22705 8468 ft 243 kts 212°
2026-05-04 13:12 39.11738 2.21620 8110 ft 238 kts 212°
2026-05-04 13:12 39.10315 2.20542 7726 ft 234 kts 212°
2026-05-04 13:13 39.08996 2.19550 7586 ft 216 kts 212°
2026-05-04 13:13 39.07763 2.18547 7376 ft 201 kts 223°
2026-05-04 13:13 39.07085 2.17021 7017 ft 200 kts 256°
2026-05-04 13:13 39.07276 2.15235 6612 ft 210 kts 290°
2026-05-04 13:14 39.08096 2.13653 6187 ft 215 kts 301°
2026-05-04 13:14 39.09045 2.12166 5759 ft 217 kts 308°
2026-05-04 13:14 39.10145 2.10837 5350 ft 217 kts 311°
2026-05-04 13:14 39.11262 2.09546 5026 ft 212 kts 312°
2026-05-04 13:15 39.12336 2.08305 5014 ft 206 kts 312°
2026-05-04 13:15 39.13405 2.07072 5006 ft 206 kts 312°
2026-05-04 13:15 39.14474 2.05839 5004 ft 206 kts 312°
2026-05-04 13:15 39.15543 2.04606 5003 ft 206 kts 312°
2026-05-04 13:16 39.16549 2.03308 5005 ft 202 kts 300°
2026-05-04 13:16 39.17041 2.01679 4983 ft 192 kts 272°
2026-05-04 13:16 39.16866 2.00020 4871 ft 186 kts 246°
2026-05-04 13:16 39.16209 1.98692 4761 ft 168 kts 232°
2026-05-04 13:17 39.15537 1.97493 4653 ft 163 kts 233°
2026-05-04 13:17 39.14878 1.96313 4556 ft 162 kts 233°
2026-05-04 13:17 39.14231 1.95152 4446 ft 152 kts 233°
2026-05-04 13:17 39.13659 1.94122 4337 ft 132 kts 233°
2026-05-04 13:18 39.13149 1.93207 4241 ft 122 kts 232°
2026-05-04 13:18 39.12662 1.92338 4140 ft 119 kts 232°
2026-05-04 13:18 39.12186 1.91489 4041 ft 119 kts 232°
2026-05-04 13:18 39.11704 1.90628 3972 ft 118 kts 233°
2026-05-04 13:19 39.11220 1.89765 3902 ft 119 kts 232°
2026-05-04 13:19 39.10892 1.89178 3851 ft 119 kts 233°
2026-05-04 13:19 39.10259 1.88045 3748 ft 116 kts 232°
2026-05-04 13:19 39.09788 1.87204 3674 ft 116 kts 232°
2026-05-04 13:20 39.09318 1.86367 3603 ft 115 kts 233°
2026-05-04 13:20 39.08807 1.85461 3537 ft 138 kts 233°
2026-05-04 13:20 39.08225 1.84428 3462 ft 146 kts 233°
2026-05-04 13:20 39.07602 1.83319 3394 ft 162 kts 233°
2026-05-04 13:21 39.06928 1.82122 3316 ft 167 kts 233°
2026-05-04 13:21 39.06244 1.80903 3244 ft 168 kts 234°
2026-05-04 13:21 39.05558 1.79676 3166 ft 169 kts 234°
2026-05-04 13:21 39.04870 1.78446 3093 ft 169 kts 233°
2026-05-04 13:22 39.04192 1.77236 3015 ft 168 kts 233°
2026-05-04 13:22 39.03506 1.76012 2933 ft 169 kts 234°
2026-05-04 13:22 39.02822 1.74782 2860 ft 169 kts 235°
2026-05-04 13:22 39.02249 1.73463 2785 ft 168 kts 240°
2026-05-04 13:23 39.01671 1.72163 2720 ft 167 kts 238°
2026-05-04 13:23 39.01104 1.70856 2638 ft 168 kts 240°
2026-05-04 13:23 39.00548 1.69526 2564 ft 169 kts 241°
2026-05-04 13:23 38.99998 1.68194 2491 ft 168 kts 240°
2026-05-04 13:24 38.99454 1.66869 2418 ft 167 kts 240°
2026-05-04 13:24 38.98914 1.65553 2340 ft 166 kts 240°
2026-05-04 13:24 38.98374 1.64237 2264 ft 167 kts 242°
2026-05-04 13:25 38.97291 1.61598 2117 ft 167 kts 241°
2026-05-04 13:25 38.96758 1.60300 2049 ft 165 kts 241°
2026-05-04 13:25 38.96218 1.58984 2012 ft 167 kts 241°
2026-05-04 13:25 38.95679 1.57674 2010 ft 165 kts 241°
2026-05-04 13:26 38.95144 1.56372 2008 ft 164 kts 241°
2026-05-04 13:26 38.94612 1.55077 2008 ft 164 kts 240°
2026-05-04 13:26 38.94105 1.53844 2001 ft 151 kts 240°
2026-05-04 13:26 38.93622 1.52671 2008 ft 146 kts 240°
2026-05-04 13:27 38.93148 1.51521 2005 ft 145 kts 239°
2026-05-04 13:27 38.92676 1.50375 1952 ft 145 kts 239°
2026-05-04 13:27 38.92200 1.49219 1813 ft 147 kts 239°
2026-05-04 13:27 38.91726 1.48068 1645 ft 145 kts 240°
2026-05-04 13:28 38.91411 1.47306 1520 ft 145 kts 239°
2026-05-04 13:28 38.90945 1.46174 1329 ft 138 kts 238°
2026-05-04 13:28 38.90510 1.45119 1157 ft 131 kts 239°
2026-05-04 13:28 38.89949 1.43760 932 ft 128 kts 239°
2026-05-04 13:29 38.89532 1.42752 746 ft 127 kts 240°
2026-05-04 13:29 38.89256 1.42083 644 ft 123 kts 239°
2026-05-04 13:29 38.88861 1.41125 484 ft 118 kts 239°
2026-05-04 13:29 38.88467 1.40172 320 ft 122 kts 239°
2026-05-04 13:30 38.88080 1.39218 164 ft 119 kts 237°
2026-05-04 13:30 38.87694 1.38290 32 ft 116 kts 238°
2026-05-04 13:30 38.87332 1.37431 29 ft 81 kts 242°
2026-05-04 13:30 38.87146 1.36973 31 ft 52 kts 244°
2026-05-04 13:31 38.87099 1.36641 28 ft 25 kts 275°
2026-05-04 13:31 38.87154 1.36570 28 ft 14 kts 28°
2026-05-04 13:31 38.87228 1.36721 29 ft 26 kts 61°
2026-05-04 13:31 38.87305 1.36855 29 ft 11 kts
2026-05-04 13:32 38.87373 1.36806 28 ft 17 kts 335°
2026-05-04 13:32 38.87502 1.36800 29 ft 16 kts 14°
2026-05-04 13:32 38.87521 1.36806 29 ft 0 kts 15°